This demonstration page uses our WeatherBlox Daily Observations layout. Learn more.

Left ArrowRight Arrow

36.17497, -115.13722

Hourly Observations for September 28, 2016

Temp ( °F °C ) Dew Point ( °F °C ) Humidity (%) Winds ( mph kmh ) Pressure ( in mb ) Visibility ( mi km ) Precip ( " mm )
12:53 am 00:53 Clear 75 23.9 44 6.7 33 33 Calm 29.96 1014 10 16.0934 0 0
1:53 am 01:53 Clear 73 22.8 47 8.3 40 40 NE 5 7 29.96 1015 10 16.0934 0 0
2:53 am 02:53 Clear 72 22.2 50 10 46 46 NNE 3 6 29.96 1015 10 16.0934 0 0
3:53 am 03:53 Clear 71 21.7 50 10 47 47 NNW 5 7 29.97 1015 10 16.0934 0 0
4:53 am 04:53 Cloudy 70 21.1 58 14.4 66 66 N 5 7 29.98 1015 10 16.0934 0 0
5:53 am 05:53 Mostly Cloudy 70 21.1 56 13.3 61 61 Calm 30 1016 10 16.0934 0 0
6:53 am 06:53 Mostly Cloudy 71 21.7 58 14.4 63 63 WNW 3 6 30.01 1016 10 16.0934 0 0
7:53 am 07:53 Partly Cloudy 72 22.2 57 13.9 59 59 N 3 6 30.02 1017 10 16.0934 0 0
8:53 am 08:53 Mostly Sunny 76 24.4 56 13.3 50 50 Calm 30.03 1017 10 16.0934 0 0
9:53 am 09:53 Sunny 78 25.6 55 12.8 45 45 S 5 7 30.03 1017 10 16.0934 0 0
10:53 am 10:53 Mostly Sunny 81 27.2 52 11.1 37 37 SSE 6 9 30.03 1017 10 16.0934 0 0
11:53 am 11:53 Sunny 83 28.3 49 9.4 31 31 Calm 30.01 1016 10 16.0934 0 0
12:53 pm 12:53 Sunny 85 29.4 47 8.3 27 27 VRB 5 7 30 1016 10 16.0934 0 0
1:53 pm 13:53 Sunny 87 30.6 46 7.8 24 24 S 7 11 29.97 1015 10 16.0934 0 0
2:53 pm 14:53 Sunny 87 30.6 46 7.8 24 24 Calm 29.96 1015 10 16.0934 0 0
3:53 pm 15:53 Sunny 87 30.6 46 7.8 24 24 WSW 12 19 29.95 1014 10 16.0934 0 0
4:53 pm 16:53 Sunny 87 30.6 45 7.2 23 23 SW 10 17 29.95 1014 10 16.0934 0 0
5:53 pm 17:53 Mostly Sunny 85 29.4 46 7.8 26 26 S 8 13 29.96 1015 10 16.0934 0 0
6:53 pm 18:53 Clear 83 28.3 47 8.3 28 28 W 10 17 29.97 1015 10 16.0934 0 0
7:53 pm 19:53 Clear 82 27.8 47 8.3 29 29 SW 5 7 29.99 1016 10 16.0934 0 0
8:53 pm 20:53 Mostly Cloudy 80 26.7 47 8.3 31 31 SSE 14 22 30.02 1017 10 16.0934 0 0
9:53 pm 21:53 Clear 78 25.6 50 10 37 37 SSE 3 6 30.02 1017 10 16.0934 0 0
10:53 pm 22:53 Clear 77 25 50 10 39 39 N 3 6 30.03 1017 10 16.0934 0 0
11:53 pm 23:53 Clear 75 23.9 50 10 41 41 Calm 30.04 1017 10 16.0934 0 0

Powered by AerisWeather